Location: Unnamed
(51.8936°N, 11.0665°E)
Time: 16:41:25
(UTC+02:00)

KAITUO 1B - Visible Passes

Search period start: 25 September 2021 00:00
Search period end: 05 October 2021 00:00
Orbit: 489 x 510 km, 97.4° (Epoch: 25 September)

Date Brightness Start Highest point End Pass type
(mag) Time Alt. Az. Time Alt. Az. Time Alt. Az.
26 Sep ? 20:18:24 10° W 20:18:59 10° W 20:19:34 10° WNW visible
27 Sep ? 19:56:39 10° SW 19:59:02 16° W 20:01:25 10° NW visible
28 Sep ? 19:36:02 10° SSW 19:39:08 25° W 19:42:14 10° NW visible
30 Sep ? 06:40:41 10° ENE 06:42:18 13° E 06:43:56 10° ESE visible
01 Oct ? 20:12:38 10° WSW 20:13:58 12° W 20:15:16 10° WNW visible
02 Oct ? 19:51:24 10° SW 19:53:59 18° W 19:56:36 10° NW visible
03 Oct ? 19:30:54 10° SSW 19:34:06 28° W 19:37:18 10° NW visible
